When you browse on this site, cookies collect data to enhance your experience and personalize the content and advertising you see.
Visit our Privacy Policy to learn more. By continuing to use the site, you agree to this use of cookies and data.
  • In France
  • List of Countries
  • For 7 days
  • Water Temperature
  • Satellite Maps
  • Weather Map
  • Weather Widgets
  • user-avatar
    Login

    Hourly Weather Linz

    Today, 20 April, Saturday

    Time Temperature Precipitation Wind Pressure Humidity
    00:00 +9°C° 0 mm 2 mps 743 mmHg 68%
    01:00 +8°C° 0 mm 2 mps 743 mmHg 70%
    02:00 +8°C° 0 mm 2 mps 743 mmHg 71%
    03:00 +7°C° 0 mm 2 mps 743 mmHg 72%
    04:00 +7°C° 0 mm 2 mps 743 mmHg 73%
    05:00 +8°C° 0 mm 2 mps 743 mmHg 71%
    06:00 +10°C° 0 mm 1 mps 743 mmHg 69%
    07:00 +11°C° 0 mm 1 mps 743 mmHg 67%
    08:00 +13°C° 0 mm 2 mps 742 mmHg 61%
    09:00 +15°C° 0 mm 2 mps 742 mmHg 55%
    10:00 +18°C° 0 mm 3 mps 742 mmHg 49%
    11:00 +19°C° 0 mm 3 mps 742 mmHg 46%
    12:00 +20°C° 0 mm 4 mps 741 mmHg 43%
    13:00 +21°C° 0 mm 4 mps 741 mmHg 40%
    14:00 +21°C° 0 mm 4 mps 741 mmHg 41%
    15:00 +20°C° 0 mm 4 mps 740 mmHg 43%
    16:00 +20°C° 0 mm 4 mps 740 mmHg 44%
    17:00 +18°C° 0 mm 4 mps 740 mmHg 50%
    18:00 +16°C° 0 mm 3 mps 740 mmHg 57%
    19:00 +13°C° 0 mm 2 mps 739 mmHg 63%
    20:00 +12°C° 0 mm 2 mps 740 mmHg 64%
    21:00 +10°C° 0 mm 2 mps 740 mmHg 64%
    22:00 +9°C° 0 mm 2 mps 740 mmHg 64%
    23:00 +10°C° 0 mm 1 mps 740 mmHg 65%

    Tomorrow, 21 April, Sunday

    Time Temperature Precipitation Wind Pressure Humidity
    00:00 +9°C° 0 mm 1 mps 740 mmHg 66%
    01:00 +9°C° 0 mm 1 mps 740 mmHg 67%
    02:00 +8°C° 0 mm 1 mps 739 mmHg 68%
    03:00 +8°C° 0 mm 1 mps 739 mmHg 69%
    04:00 +8°C° 0 mm 1 mps 739 mmHg 70%
    05:00 +9°C° 0 mm 1 mps 739 mmHg 68%
    06:00 +10°C° 0 mm 1 mps 739 mmHg 67%
    07:00 +11°C° 0 mm 1 mps 738 mmHg 65%
    08:00 +13°C° 0 mm 1 mps 738 mmHg 59%
    09:00 +15°C° 0 mm 2 mps 738 mmHg 53%
    10:00 +17°C° 0 mm 3 mps 738 mmHg 47%
    11:00 +18°C° 0 mm 3 mps 737 mmHg 44%
    12:00 +19°C° 0 mm 3 mps 737 mmHg 42%
    13:00 +20°C° 0 mm 4 mps 736 mmHg 40%
    14:00 +20°C° 0 mm 4 mps 736 mmHg 42%
    15:00 +20°C° 0 mm 4 mps 735 mmHg 44%
    16:00 +20°C° 0 mm 4 mps 735 mmHg 47%
    17:00 +18°C° 0 mm 4 mps 735 mmHg 53%
    18:00 +15°C° 0 mm 4 mps 734 mmHg 59%
    19:00 +13°C° 0 mm 3 mps 734 mmHg 66%
    20:00 +12°C° 0 mm 3 mps 734 mmHg 65%
    21:00 +11°C° 0 mm 3 mps 735 mmHg 65%
    22:00 +10°C° 0 mm 3 mps 735 mmHg 65%
    23:00 +10°C° 0 mm 3 mps 735 mmHg 68%

    Day after tomorrow, 22 April, Monday

    Time Temperature Precipitation Wind Pressure Humidity
    00:00 +9°C° 0 mm 3 mps 734 mmHg 70%
    01:00 +9°C° 0 mm 2 mps 734 mmHg 73%
    02:00 +8°C° 0 mm 2 mps 733 mmHg 74%
    03:00 +8°C° 0 mm 2 mps 733 mmHg 74%
    04:00 +7°C° 0 mm 2 mps 732 mmHg 75%
    05:00 +8°C° 0 mm 2 mps 732 mmHg 73%
    06:00 +9°C° 0 mm 3 mps 732 mmHg 71%
    07:00 +10°C° 0 mm 3 mps 731 mmHg 68%
    08:00 +12°C° 0 mm 4 mps 731 mmHg 64%
    09:00 +14°C° 0 mm 5 mps 730 mmHg 59%
    10:00 +16°C° 0 mm 5 mps 730 mmHg 54%
    11:00 +16°C° 0 mm 6 mps 729 mmHg 53%
    12:00 +17°C° 0 mm 6 mps 729 mmHg 52%
    13:00 +18°C° 0 mm 7 mps 728 mmHg 50%
    14:00 +18°C° 0 mm 7 mps 728 mmHg 52%
    15:00 +18°C° 0 mm 7 mps 727 mmHg 54%
    16:00 +18°C° 0 mm 7 mps 727 mmHg 56%
    17:00 +16°C° 0 mm 7 mps 726 mmHg 60%
    18:00 +15°C° 0 mm 7 mps 726 mmHg 63%
    19:00 +14°C° 0 mm 7 mps 726 mmHg 67%
    20:00 +12°C° 0 mm 7 mps 726 mmHg 68%
    21:00 +11°C° 0 mm 6 mps 726 mmHg 70%
    22:00 +10°C° 0 mm 6 mps 726 mmHg 71%
    23:00 +10°C° 0 mm 5 mps 725 mmHg 73%

    23 April, Tuesday

    Time Temperature Precipitation Wind Pressure Humidity
    00:00 +10°C° 0 mm 4 mps 724 mmHg 74%
    01:00 +10°C° 0 mm 4 mps 724 mmHg 76%
    02:00 +10°C° 0 mm 3 mps 723 mmHg 77%
    03:00 +10°C° 0 mm 3 mps 723 mmHg 78%
    04:00 +10°C° 0 mm 3 mps 722 mmHg 80%
    05:00 +10°C° 0 mm 3 mps 722 mmHg 79%
    06:00 +11°C° 0 mm 3 mps 722 mmHg 79%
    07:00 +12°C° 0 mm 4 mps 722 mmHg 78%
    08:00 +13°C° 0 mm 4 mps 722 mmHg 72%
    09:00 +15°C° 0 mm 4 mps 722 mmHg 66%
    10:00 +18°C° 0 mm 4 mps 722 mmHg 60%
    11:00 +18°C° 0 mm 4 mps 722 mmHg 58%
    12:00 +19°C° 0 mm 4 mps 722 mmHg 55%
    13:00 +20°C° 0 mm 4 mps 722 mmHg 53%
    14:00 +20°C° 0 mm 4 mps 722 mmHg 53%
    15:00 +20°C° 0 mm 4 mps 722 mmHg 53%
    16:00 +21°C° 0 mm 5 mps 722 mmHg 53%
    17:00 +19°C° 0 mm 4 mps 722 mmHg 58%
    18:00 +17°C° 0 mm 4 mps 722 mmHg 64%
    19:00 +14°C° 0 mm 3 mps 722 mmHg 69%
    20:00 +13°C° 0 mm 3 mps 723 mmHg 73%
    21:00 +13°C° 0 mm 2 mps 723 mmHg 78%
    22:00 +12°C° 0 mm 2 mps 724 mmHg 83%
    23:00 +12°C° 0 mm 2 mps 724 mmHg 84%

    24 April, Wednesday

    Time Temperature Precipitation Wind Pressure Humidity
    00:00 +11°C° 0 mm 1 mps 725 mmHg 85%
    01:00 +11°C° 0 mm 1 mps 725 mmHg 86%
    02:00 +11°C° 0 mm 1 mps 726 mmHg 87%
    03:00 +11°C° 0 mm 1 mps 726 mmHg 87%
    04:00 +10°C° 0 mm 1 mps 727 mmHg 88%
    05:00 +12°C° 0 mm 1 mps 727 mmHg 84%
    06:00 +12°C° 0 mm 0 mps 728 mmHg 80%
    07:00 +13°C° 0 mm 0 mps 729 mmHg 76%
    08:00 +15°C° 0 mm 0 mps 729 mmHg 69%
    09:00 +18°C° 0 mm 0 mps 729 mmHg 62%
    10:00 +20°C° 0 mm 0 mps 730 mmHg 55%
    11:00 +23°C° 0 mm 1 mps 730 mmHg 53%
    12:00 +24°C° 0 mm 1 mps 730 mmHg 50%
    13:00 +25°C° 0 mm 2 mps 730 mmHg 48%
    14:00 +25°C° 0 mm 2 mps 730 mmHg 49%
    15:00 +25°C° 0 mm 2 mps 730 mmHg 50%
    16:00 +25°C° 0 mm 2 mps 730 mmHg 51%
    17:00 +23°C° 0 mm 2 mps 730 mmHg 58%
    18:00 +20°C° 0 mm 2 mps 730 mmHg 65%
    19:00 +18°C° 0 mm 2 mps 730 mmHg 72%
    20:00 +17°C° 0 mm 2 mps 731 mmHg 74%
    21:00 +16°C° 0 mm 2 mps 731 mmHg 77%
    22:00 +14°C° 0 mm 1 mps 731 mmHg 80%
    23:00 +14°C° 0 mm 1 mps 731 mmHg 81%

    25 April, Thursday

    Time Temperature Precipitation Wind Pressure Humidity
    00:00 +13°C° 0 mm 1 mps 731 mmHg 82%
    01:00 +13°C° 0 mm 1 mps 731 mmHg 83%
    02:00 +12°C° 0 mm 1 mps 731 mmHg 84%
    03:00 +12°C° 0 mm 1 mps 731 mmHg 85%
    04:00 +11°C° 0 mm 1 mps 731 mmHg 86%
    05:00 +12°C° 0 mm 2 mps 731 mmHg 83%
    06:00 +13°C° 0 mm 2 mps 731 mmHg 80%
    07:00 +14°C° 0 mm 2 mps 730 mmHg 77%
    08:00 +16°C° 0 mm 2 mps 730 mmHg 70%
    09:00 +18°C° 0 mm 3 mps 730 mmHg 63%
    10:00 +21°C° 0 mm 3 mps 730 mmHg 56%
    11:00 +22°C° 0 mm 3 mps 729 mmHg 52%
    12:00 +24°C° 0 mm 3 mps 729 mmHg 48%
    13:00 +26°C° 0 mm 3 mps 728 mmHg 44%
    14:00 +26°C° 0 mm 3 mps 728 mmHg 45%
    15:00 +27°C° 0 mm 4 mps 727 mmHg 45%
    16:00 +27°C° 0 mm 4 mps 727 mmHg 46%
    17:00 +25°C° 0 mm 4 mps 727 mmHg 51%
    18:00 +21°C° 0 mm 4 mps 726 mmHg 57%
    19:00 +19°C° 0 mm 3 mps 726 mmHg 62%
    20:00 +18°C° 0 mm 3 mps 726 mmHg 65%
    21:00 +17°C° 0 mm 3 mps 726 mmHg 68%
    22:00 +16°C° 0 mm 2 mps 726 mmHg 71%
    23:00 +15°C° 0 mm 2 mps 726 mmHg 74%
    Show more